Location: Atlantic Beach
(40.5890°N, 73.7290°W)
Time: 06:30:49
(UTC+00:00)

N. Korean satellite - Pass Details

Date: 24 January 2021
Orbit: 451 x 502 km, 97.2° (Epoch: 06 March)

Event Time Altitude Azimuth Distance (km) Brightness Sun altitude
Rises 09:53:58 0° 21° (NNE) 2,506 10.4 -26.0°
Reaches altitude 10° 09:56:09 10° 30° (NNE) 1,617 9.5 -25.6°
Maximum altitude 09:59:21 34° 97° (E) 771 8.1 -25.0°
Drops below altitude 10° 10:02:29 10° 165° (SSE) 1,586 9.4 -24.4°
Sets 10:04:37 0° 174° (S) 2,449 10.3 -24.0°
